Powrót do katalogu

MERIDIAN 9

AktywnyMilitariaHEO
NORAD 45254·PAYLOAD·🇷🇺 Russia

Wystrzelony Feb 20, 2020 z Plesetsk Cosmodrome

Loading…

Następne Przeloty (najbliższe 24 godziny)

TLE

ŚwieżeSource: Space-Track

Epoka: Sep 14, 2026, 04:43 UTC

1 45254U 20015A   26257.19717774 -.00000056  00000-0  00000-0 0  9995
2 45254  65.5371 309.6341 6831250 276.4042  16.0703  2.00616277 48072

Śledź MERIDIAN 9 w czasie rzeczywistym z AllMySat

Download on the App Store